Weather in Antipinka

Russia / Chuvash Republic     55°08′18″N   46°15′01″E
temp.,
°C
wind,
m/s
gust,
m/s
humid.,
%
clouds,
%
prec.,
mm/h
press.,
hPa
HPBL,
m
28 february, sun
sun2800:00−18nnw5109591 0.0 1008212
03:00−19nw599758 0.0 1010193
06:00−21nw489755 0.0 1011142
09:00−19nw479546 0.0 1012247
12:00−16nw479380 0.0 1012310
15:00−14nw479289 0.0 1014369
18:00−16nw349696 0.0 101564
21:00−17nnw239895 0.1 101829
1 march, mon
mon100:00−18nw339975 0.0 101929
03:00−19nw339976 0.1 102129
06:00−20nw2310070 0.0 102220
09:00−17wnw239567 0.0 1023116
12:00−13wnw349170 0.0 1023278
15:00−11wsw359175 0.0 1022294
18:00−13sw349480 0.0 102076
21:00−11sw499487 0.0 1018232
2 march, tue
tue200:00−9sw61292100 0.0 1014289
03:00−6sw71494100 0.3 1010489
06:00−3sw71495100 0.9 1005585
09:000wsw71293100 1.6 1002626
12:000wnw510100100 1.1 1000548
15:00+1wnw51094100 1.3 1000686
18:000nw7139793 0.6 1001692
21:00−1nw7139496 0.8 1002646
3 march, wed
wed300:00−4nw6129597 0.1 1003500
03:00−4nw5119598 0.5 1003395
06:00−5nw5109598 0.3 1004379
09:00−5nw6119398 0.8 1005588
12:00−4nw71091100 0.3 1007684
15:00−3nnw81189100 0.6 1009782
18:00−5nw51189100 0.1 1010428
21:00−8nw4109486 0.1 1013269
4 march, thu
thu400:00−8nw5119395 0.0 1014320
03:00−10wnw499686 0.0 1015158
06:00−12wnw479670 0.0 1015111
09:00−10w479361 0.0 1015235
12:00−6wsw479383 0.0 1014341
15:00−3sw7109189 0.0 1011630
18:00−2sw7148999 0.0 1009657
21:00−3sw71589100 0.0 1007611